WA9SDJ-13 Weather Reports


time (UTC)temp
C
wind
direction
speed
KPH
gust
KPH
rain 1hr
cm
rain 24hr
cm
rain mn
cm
humidity
%
barometer
mb
20260504013029 15 0 3.2 4.8 0.00 0.00 0.00 60 1009.5
20260504012929 15 0 3.2 4.8 0.00 0.00 0.00 60 1009.6
20260504012829 15 0 1.6 4.8 0.00 0.00 0.00 60 1009.5
20260504012729 15 0 3.2 4.8 0.00 0.00 0.00 60 1009.5
20260504012629 15 0 3.2 4.8 0.00 0.00 0.00 60 1009.6
20260504012529 15 0 3.2 4.8 0.00 0.00 0.00 60 1009.5
20260504012429 15 0 3.2 4.8 0.00 0.00 0.00 60 1009.4
20260504012329 15 0 3.2 4.8 0.00 0.00 0.00 61 1009.4
20260504012229 15 0 1.6 4.8 0.00 0.00 0.00 61 1009.4
20260504012129 15 0 3.2 6.4 0.00 0.00 0.00 61 1009.4
20260504012029 15 0 3.2 8.0 0.00 0.00 0.00 60 1009.4
20260504011929 15 0 1.6 8.0 0.00 0.00 0.00 60 1009.5
20260504011829 15 0 1.6 8.0 0.00 0.00 0.00 61 1009.4
20260504011729 15 0 1.6 8.0 0.00 0.00 0.00 61 1009.4
20260504011629 15 0 1.6 8.0 0.00 0.00 0.00 61 1009.4
20260504011529 15 0 1.6 8.0 0.00 0.00 0.00 61 1009.4
20260504011428 15 0 1.6 8.0 0.00 0.00 0.00 60 1009.5
20260504011329 15 0 3.2 8.0 0.00 0.00 0.00 61 1009.5
20260504011229 15 0 3.2 8.0 0.00 0.00 0.00 61 1009.5
20260504011128 15 0 3.2 8.0 0.00 0.00 0.00 60 1009.5
20260504011028 15 0 1.6 6.4 0.00 0.00 0.00 60 1009.4
20260504010928 15 0 3.2 6.4 0.00 0.00 0.00 60 1009.4
20260504010828 15 0 3.2 6.4 0.00 0.00 0.00 60 1009.4
20260504010728 15 0 3.2 6.4 0.00 0.00 0.00 60 1009.4
20260504010628 15 0 3.2 6.4 0.00 0.00 0.00 60 1009.5
20260504010528 15 0 3.2 6.4 0.00 0.00 0.00 59 1009.4
20260504010428 15 0 3.2 6.4 0.00 0.00 0.00 59 1009.3
20260504010327 15 0 3.2 6.4 0.00 0.00 0.00 59 1009.4
20260504010228 15 0 3.2 8.0 0.00 0.00 0.00 60 1009.4
20260504010128 15 0 3.2 8.0 0.00 0.00 0.00 61 1009.4
20260504010029 15 0 3.2 8.0 0.00 0.00 0.00 60 1009.3
20260504005929 15 0 3.2 8.0 0.00 0.00 0.00 59 1009.4
20260504005828 15 0 3.2 8.0 0.00 0.00 0.00 59 1009.2
20260504005728 15 0 3.2 8.0 0.00 0.00 0.00 59 1009.3
20260504005628 15 0 3.2 8.0 0.00 0.00 0.00 59 1009.3
20260504005528 15 0 4.8 8.0 0.00 0.00 0.00 59 1009.2
20260504005428 15 0 4.8 8.0 0.00 0.00 0.00 59 1009.3
20260504005328 15 0 4.8 8.0 0.00 0.00 0.00 59 1009.4
20260504005228 15 0 4.8 6.4 0.00 0.00 0.00 59 1009.3
20260504005128 15 0 3.2 6.4 0.00 0.00 0.00 59 1009.4
20260504005028 15 0 3.2 4.8 0.00 0.00 0.00 59 1009.4
20260504004928 15 0 3.2 4.8 0.00 0.00 0.00 59 1009.5
20260504004828 15 0 3.2 4.8 0.00 0.00 0.00 59 1009.5
20260504004728 15 0 3.2 6.4 0.00 0.00 0.00 59 1009.4
20260504004628 15 0 3.2 8.0 0.00 0.00 0.00 59 1009.5
20260504004528 15 0 1.6 8.0 0.00 0.00 0.00 60 1009.5
20260504004428 15 0 1.6 8.0 0.00 0.00 0.00 59 1009.5
20260504004328 16 0 3.2 8.0 0.00 0.00 0.00 58 1009.6
20260504004228 16 0 3.2 8.0 0.00 0.00 0.00 59 1009.5
20260504004128 16 0 3.2 11.3 0.00 0.00 0.00 59 1009.5
20260504004028 16 0 3.2 11.3 0.00 0.00 0.00 59 1009.5
20260504003928 16 0 3.2 11.3 0.00 0.00 0.00 58 1009.5
20260504003828 16 0 4.8 11.3 0.00 0.00 0.00 58 1009.4
20260504003728 16 0 4.8 11.3 0.00 0.00 0.00 58 1009.4
20260504003628 16 0 4.8 11.3 0.00 0.00 0.00 59 1009.5
20260504003528 16 0 3.2 11.3 0.00 0.00 0.00 58 1009.6
20260504003428 16 0 4.8 11.3 0.00 0.00 0.00 59 1009.6
20260504003328 16 0 6.4 11.3 0.00 0.00 0.00 59 1009.5
20260504003228 16 0 4.8 11.3 0.00 0.00 0.00 59 1009.6
20260504003128 16 0 3.2 9.7 0.00 0.00 0.00 59 1009.6
20260504003028 16 0 3.2 9.7 0.00 0.00 0.00 59 1009.6
20260504002927 16 0 4.8 9.7 0.00 0.00 0.00 60 1009.7
20260504002827 16 0 4.8 9.7 0.00 0.00 0.00 59 1009.7
20260504002727 16 0 3.2 8.0 0.00 0.00 0.00 59 1009.7
20260504002627 16 0 3.2 8.0 0.00 0.00 0.00 59 1009.7
20260504002527 16 0 3.2 8.0 0.00 0.00 0.00 59 1009.7
20260504002428 16 0 3.2 8.0 0.00 0.00 0.00 58 1009.6
20260504002328 16 0 3.2 8.0 0.00 0.00 0.00 58 1009.5
20260504002228 16 0 4.8 8.0 0.00 0.00 0.00 57 1009.4
20260504002128 16 0 4.8 8.0 0.00 0.00 0.00 59 1009.3
20260504002028 16 0 4.8 6.4 0.00 0.00 0.00 58 1009.5
20260504001928 16 0 3.2 6.4 0.00 0.00 0.00 58 1009.6
20260504001827 16 0 3.2 11.3 0.00 0.00 0.00 58 1009.7
20260504001727 16 0 3.2 11.3 0.00 0.00 0.00 59 1009.8
20260504001627 16 0 4.8 11.3 0.00 0.00 0.00 58 1009.8
20260504001527 16 0 4.8 11.3 0.00 0.00 0.00 58 1009.9
20260504001427 16 0 3.2 11.3 0.00 0.00 0.00 58 1009.8
20260504001327 16 0 3.2 11.3 0.00 0.00 0.00 58 1009.8
20260504001227 16 0 3.2 11.3 0.00 0.00 0.00 58 1009.7
20260504001127 16 0 3.2 11.3 0.00 0.00 0.00 58 1009.6
20260504001027 16 0 4.8 11.3 0.00 0.00 0.00 58 1009.6
20260504000927 16 0 4.8 11.3 0.00 0.00 0.00 58 1009.5
20260504000827 16 0 3.2 9.7 0.00 0.00 0.00 57 1009.5
20260504000727 16 0 3.2 9.7 0.00 0.00 0.00 57 1009.5
20260504000628 16 0 3.2 9.7 0.00 0.00 0.00 57 1009.5
20260504000528 16 0 3.2 9.7 0.00 0.00 0.00 58 1009.5
20260504000427 16 0 4.8 9.7 0.00 0.00 0.00 58 1009.5
20260504000327 16 0 6.4 9.7 0.00 0.00 0.00 58 1009.5
20260504000227 16 0 4.8 9.7 0.00 0.00 0.00 58 1009.6
20260504000127 16 0 3.2 6.4 0.00 0.00 0.00 58 1009.7
20260504000027 16 0 3.2 6.4 0.00 0.00 0.00 58 1009.7
20260503235927 16 0 3.2 6.4 0.00 0.00 0.00 58 1009.8
20260503235827 16 0 3.2 6.4 0.00 0.00 0.00 58 1009.7
20260503235727 16 0 3.2 6.4 0.00 0.00 0.00 57 1009.6
20260503235627 16 0 3.2 6.4 0.00 0.00 0.00 57 1009.6
20260503235527 16 0 3.2 6.4 0.00 0.00 0.00 58 1009.5
20260503235427 16 0 4.8 6.4 0.00 0.00 0.00 58 1009.6
20260503235327 16 0 4.8 6.4 0.00 0.00 0.00 58 1009.5
20260503235227 16 0 3.2 6.4 0.00 0.00 0.00 58 1009.6
20260503235127 16 0 3.2 6.4 0.00 0.00 0.00 58 1009.6
20260503235027 16 0 3.2 6.4 0.00 0.00 0.00 58 1009.6
20260503234927 16 0 3.2 6.4 0.00 0.00 0.00 58 1009.7
20260503234827 16 0 3.2 6.4 0.00 0.00 0.00 58 1009.8
20260503234727 16 0 3.2 6.4 0.00 0.00 0.00 59 1009.8
20260503234627 16 0 3.2 6.4 0.00 0.00 0.00 58 1009.9
20260503234527 16 0 3.2 6.4 0.00 0.00 0.00 58 1009.8
20260503234427 16 0 4.8 6.4 0.00 0.00 0.00 57 1009.9
20260503234327 16 0 4.8 6.4 0.00 0.00 0.00 58 1009.8
20260503234227 16 0 3.2 14.5 0.00 0.00 0.00 58 1009.7
20260503234127 16 0 1.6 14.5 0.00 0.00 0.00 59 1009.6
20260503234027 16 0 1.6 14.5 0.00 0.00 0.00 59 1009.6
20260503233927 16 0 1.6 14.5 0.00 0.00 0.00 60 1009.5
20260503233826 16 0 1.6 14.5 0.00 0.00 0.00 59 1009.6
20260503233727 16 0 1.6 14.5 0.00 0.00 0.00 59 1009.6
20260503233627 16 0 1.6 14.5 0.00 0.00 0.00 58 1009.7
20260503233526 16 0 1.6 14.5 0.00 0.00 0.00 59 1009.5
20260503233427 16 0 4.8 14.5 0.00 0.00 0.00 58 1009.5
20260503233327 16 0 4.8 14.5 0.00 0.00 0.00 58 1009.5
20260503233227 16 0 3.2 8.0 0.00 0.00 0.00 58 1009.4
20260503233127 16 0 4.8 8.0 0.00 0.00 0.00 58 1009.4
20260503233026 16 0 4.8 8.0 0.00 0.00 0.00 57 1009.4
20260503232927 16 0 4.8 11.3 0.00 0.00 0.00 58 1009.5
20260503232827 16 0 4.8 11.3 0.00 0.00 0.00 58 1009.5
20260503232726 16 0 4.8 11.3 0.00 0.00 0.00 58 1009.5
20260503232626 16 0 4.8 11.3 0.00 0.00 0.00 57 1009.6
20260503232527 16 0 4.8 11.3 0.00 0.00 0.00 58 1009.6
20260503232426 16 0 4.8 11.3 0.00 0.00 0.00 58 1009.8
20260503232326 16 0 3.2 11.3 0.00 0.00 0.00 58 1010.0
20260503232226 16 0 4.8 11.3 0.00 0.00 0.00 58 1010.0
20260503232126 16 0 6.4 11.3 0.00 0.00 0.00 57 1010.0
20260503232026 16 0 4.8 11.3 0.00 0.00 0.00 58 1010.0
20260503231926 16 0 3.2 11.3 0.00 0.00 0.00 58 1010.1
20260503231826 16 0 4.8 11.3 0.00 0.00 0.00 58 1010.1
20260503231726 16 0 6.4 11.3 0.00 0.00 0.00 58 1010.1
20260503231626 16 0 6.4 11.3 0.00 0.00 0.00 57 1010.1
20260503231526 16 0 4.8 9.7 0.00 0.00 0.00 59 1010.0
20260503231426 16 0 3.2 11.3 0.00 0.00 0.00 58 1009.9
20260503231326 16 0 4.8 11.3 0.00 0.00 0.00 58 1009.9
20260503231226 16 0 4.8 11.3 0.00 0.00 0.00 58 1009.7
20260503231126 16 0 4.8 11.3 0.00 0.00 0.00 58 1009.6
20260503231026 16 0 4.8 11.3 0.00 0.00 0.00 58 1009.5
20260503230926 16 0 6.4 11.3 0.00 0.00 0.00 58 1009.5
20260503230826 16 0 6.4 11.3 0.00 0.00 0.00 58 1009.5
20260503230726 16 0 6.4 11.3 0.00 0.00 0.00 58 1009.5
20260503230626 16 0 6.4 11.3 0.00 0.00 0.00 58 1009.6
20260503230526 16 0 6.4 11.3 0.00 0.00 0.00 59 1009.6
20260503230426 16 0 4.8 9.7 0.00 0.00 0.00 59 1009.6
20260503230326 16 0 4.8 8.0 0.00 0.00 0.00 59 1009.6
20260503230225 16 0 4.8 8.0 0.00 0.00 0.00 59 1009.6
20260503230125 16 0 6.4 8.0 0.00 0.00 0.00 58 1009.7
20260503230026 16 0 6.4 8.0 0.00 0.00 0.00 58 1009.7
20260503225926 16 0 6.4 8.0 0.00 0.00 0.00 59 1009.8
20260503225825 16 0 4.8 6.4 0.00 0.00 0.00 58 1010.0
20260503225726 16 0 4.8 6.4 0.00 0.00 0.00 58 1010.0
20260503225626 16 0 4.8 6.4 0.00 0.00 0.00 58 1010.2
20260503225526 16 0 4.8 6.4 0.00 0.00 0.00 58 1010.1
20260503225426 16 0 4.8 9.7 0.00 0.00 0.00 57 1010.1
20260503225326 16 0 4.8 9.7 0.00 0.00 0.00 56 1010.1
20260503225226 16 0 4.8 9.7 0.00 0.00 0.00 56 1010.2
20260503225126 16 0 4.8 9.7 0.00 0.00 0.00 56 1010.4
20260503225025 16 0 3.2 9.7 0.00 0.00 0.00 56 1010.7
20260503224925 16 0 4.8 9.7 0.00 0.00 0.00 57 1010.8
20260503224825 16 0 4.8 9.7 0.00 0.00 0.00 57 1010.9
20260503224725 16 0 3.2 9.7 0.00 0.00 0.00 56 1011.0
20260503224625 16 0 4.8 9.7 0.00 0.00 0.00 56 1011.0
20260503224526 16 0 4.8 9.7 0.00 0.00 0.00 56 1011.0
20260503224426 16 0 3.2 6.4 0.00 0.00 0.00 57 1011.1
20260503224326 16 0 3.2 6.4 0.00 0.00 0.00 57 1011.2
20260503224226 16 0 3.2 6.4 0.00 0.00 0.00 57 1011.2
20260503224126 16 0 3.2 9.7 0.00 0.00 0.00 56 1011.3
20260503224025 16 0 3.2 9.7 0.00 0.00 0.00 58 1011.2
20260503223925 16 0 3.2 9.7 0.00 0.00 0.00 57 1011.1
20260503223825 16 0 3.2 9.7 0.00 0.00 0.00 57 1011.0
20260503223725 16 0 3.2 9.7 0.00 0.00 0.00 56 1011.0
20260503223625 16 0 3.2 9.7 0.00 0.00 0.00 56 1011.0
20260503223525 16 0 3.2 9.7 0.00 0.00 0.00 55 1010.9
20260503223425 16 0 3.2 9.7 0.00 0.00 0.00 55 1010.9
20260503223325 16 0 3.2 9.7 0.00 0.00 0.00 55 1010.9
20260503223225 16 0 3.2 9.7 0.00 0.00 0.00 56 1010.9
20260503223125 16 0 3.2 8.0 0.00 0.00 0.00 54 1010.8
20260503223025 16 0 3.2 8.0 0.00 0.00 0.00 55 1010.8
20260503222925 16 0 3.2 8.0 0.00 0.00 0.00 55 1010.8
20260503222825 16 0 3.2 8.0 0.00 0.00 0.00 55 1010.8
20260503222725 16 0 4.8 8.0 0.00 0.00 0.00 54 1010.7
20260503222625 16 0 4.8 8.0 0.00 0.00 0.00 55 1010.7
20260503222525 16 0 4.8 8.0 0.00 0.00 0.00 55 1010.6
20260503222425 16 0 3.2 8.0 0.00 0.00 0.00 54 1010.7
20260503222325 16 0 4.8 8.0 0.00 0.00 0.00 55 1010.7
20260503222225 16 0 4.8 8.0 0.00 0.00 0.00 54 1010.7
20260503222125 16 0 6.4 9.7 0.00 0.00 0.00 54 1010.7
20260503222025 16 0 4.8 9.7 0.00 0.00 0.00 54 1010.7
20260503221925 16 0 4.8 9.7 0.00 0.00 0.00 56 1010.8
20260503221825 16 0 4.8 9.7 0.00 0.00 0.00 56 1010.8
20260503221725 16 0 3.2 9.7 0.00 0.00 0.00 56 1010.8
20260503221625 16 0 3.2 14.5 0.00 0.00 0.00 56 1010.9
20260503221525 16 0 3.2 14.5 0.00 0.00 0.00 55 1010.8
20260503221425 16 0 3.2 14.5 0.00 0.00 0.00 57 1010.9
20260503221323 16 0 4.8 14.5 0.00 0.00 0.00 56 1010.8
20260503221225 16 0 6.4 14.5 0.00 0.00 0.00 54 1010.8
20260503221125 16 0 4.8 14.5 0.00 0.00 0.00 55 1010.9
20260503221024 16 0 4.8 14.5 0.00 0.00 0.00 54 1010.8
20260503220924 16 0 6.4 14.5 0.00 0.00 0.00 55 1010.7
20260503220824 16 0 6.4 14.5 0.00 0.00 0.00 55 1010.8
20260503220724 16 0 6.4 14.5 0.00 0.00 0.00 55 1010.9
20260503220624 16 0 4.8 14.5 0.00 0.00 0.00 55 1010.9
20260503220525 16 0 4.8 14.5 0.00 0.00 0.00 54 1010.8
20260503220425 16 0 4.8 14.5 0.00 0.00 0.00 54 1010.7
20260503220325 16 0 4.8 14.5 0.00 0.00 0.00 53 1010.7
20260503220224 16 0 4.8 14.5 0.00 0.00 0.00 54 1010.7
20260503220124 16 0 4.8 14.5 0.00 0.00 0.00 54 1010.7
20260503220024 16 0 4.8 14.5 0.00 0.00 0.00 54 1010.7
20260503215924 16 0 6.4 14.5 0.00 0.00 0.00 53 1010.6
20260503215824 16 0 6.4 14.5 0.00 0.00 0.00 53 1010.5
20260503215725 16 0 8.0 14.5 0.00 0.00 0.00 54 1010.5
20260503215625 16 0 6.4 14.5 0.00 0.00 0.00 53 1010.5
20260503215524 16 0 4.8 9.7 0.00 0.00 0.00 53 1010.5
20260503215424 16 0 4.8 9.7 0.00 0.00 0.00 54 1010.5
20260503215324 16 0 4.8 9.7 0.00 0.00 0.00 53 1010.4
20260503215224 16 0 4.8 9.7 0.00 0.00 0.00 54 1010.4
20260503215124 16 0 3.2 9.7 0.00 0.00 0.00 54 1010.4
20260503215024 16 0 4.8 9.7 0.00 0.00 0.00 54 1010.4
20260503214924 16 0 3.2 9.7 0.00 0.00 0.00 53 1010.4
20260503214824 16 0 6.4 9.7 0.00 0.00 0.00 53 1010.4
20260503214724 16 0 6.4 9.7 0.00 0.00 0.00 53 1010.4
20260503214624 16 0 4.8 9.7 0.00 0.00 0.00 53 1010.5
20260503214525 16 0 4.8 9.7 0.00 0.00 0.00 52 1010.5
20260503214424 16 0 6.4 9.7 0.00 0.00 0.00 53 1010.6
20260503214324 16 0 4.8 16.1 0.00 0.00 0.00 53 1010.7
20260503214224 16 0 4.8 16.1 0.00 0.00 0.00 53 1010.8
20260503214124 16 0 4.8 16.1 0.00 0.00 0.00 54 1010.8
20260503214024 16 0 4.8 16.1 0.00 0.00 0.00 54 1010.9
20260503213924 16 0 4.8 16.1 0.00 0.00 0.00 53 1011.0
20260503213824 16 0 6.4 16.1 0.00 0.00 0.00 53 1011.1
20260503213724 16 0 6.4 16.1 0.00 0.00 0.00 54 1011.2
20260503213624 16 0 4.8 16.1 0.00 0.00 0.00 54 1011.3
20260503213524 16 0 4.8 17.7 0.00 0.00 0.00 54 1011.3
20260503213423 16 0 4.8 17.7 0.00 0.00 0.00 54 1011.2
20260503213324 16 0 3.2 17.7 0.00 0.00 0.00 53 1011.2
20260503213224 16 0 3.2 17.7 0.00 0.00 0.00 52 1011.1
20260503213124 16 0 3.2 17.7 0.00 0.00 0.00 53 1011.1
20260503213024 16 0 4.8 17.7 0.00 0.00 0.00 52 1011.1
20260503212923 16 0 4.8 17.7 0.00 0.00 0.00 51 1011.0
20260503212823 16 0 4.8 17.7 0.00 0.00 0.00 52 1010.9
20260503212723 16 0 4.8 17.7 0.00 0.00 0.00 51 1010.9
20260503212623 16 0 6.4 17.7 0.00 0.00 0.00 52 1010.9
20260503212524 16 0 3.2 9.7 0.00 0.00 0.00 52 1011.0
20260503212424 16 0 3.2 9.7 0.00 0.00 0.00 52 1010.9
20260503212324 16 0 4.8 9.7 0.00 0.00 0.00 53 1011.0
20260503212223 16 0 3.2 9.7 0.00 0.00 0.00 53 1011.0
20260503212123 16 0 4.8 9.7 0.00 0.00 0.00 53 1011.0
20260503212023 16 0 6.4 9.7 0.00 0.00 0.00 53 1011.0
20260503211923 16 0 3.2 9.7 0.00 0.00 0.00 54 1011.1
20260503211823 16 0 3.2 9.7 0.00 0.00 0.00 53 1011.1
20260503211723 16 0 3.2 9.7 0.00 0.00 0.00 54 1011.2
20260503211623 16 0 3.2 11.3 0.00 0.00 0.00 53 1011.2
20260503211524 16 0 4.8 11.3 0.00 0.00 0.00 52 1011.2
20260503211424 16 0 3.2 11.3 0.00 0.00 0.00 53 1011.3
20260503211324 16 0 3.2 11.3 0.00 0.00 0.00 53 1011.3
20260503211224 16 0 3.2 11.3 0.00 0.00 0.00 53 1011.4
20260503211124 16 0 4.8 11.3 0.00 0.00 0.00 53 1011.5
20260503211023 16 0 4.8 11.3 0.00 0.00 0.00 53 1011.6
20260503210923 16 0 4.8 11.3 0.00 0.00 0.00 53 1011.6
20260503210823 16 0 6.4 11.3 0.00 0.00 0.00 54 1011.6
20260503210723 16 0 6.4 11.3 0.00 0.00 0.00 53 1011.4
20260503210623 16 0 6.4 11.3 0.00 0.00 0.00 53 1011.4
20260503210523 16 0 4.8 11.3 0.00 0.00 0.00 53 1011.3
20260503210423 16 0 4.8 11.3 0.00 0.00 0.00 52 1011.4
20260503210323 16 0 4.8 11.3 0.00 0.00 0.00 52 1011.4
20260503210223 16 0 6.4 11.3 0.00 0.00 0.00 52 1011.5
20260503210123 16 0 6.4 11.3 0.00 0.00 0.00 52 1011.5
20260503210023 16 0 3.2 9.7 0.00 0.00 0.00 52 1011.5
20260503205923 16 0 3.2 9.7 0.00 0.00 0.00 53 1011.3
20260503205823 16 0 3.2 9.7 0.00 0.00 0.00 52 1011.2
20260503205723 16 0 3.2 9.7 0.00 0.00 0.00 54 1011.3
20260503205624 16 0 3.2 9.7 0.00 0.00 0.00 55 1011.4
20260503205523 16 0 3.2 9.7 0.00 0.00 0.00 54 1011.5
20260503205423 16 0 3.2 11.3 0.00 0.00 0.00 54 1011.6
20260503205323 16 0 3.2 11.3 0.00 0.00 0.00 54 1011.6
20260503205223 16 0 3.2 11.3 0.00 0.00 0.00 54 1011.7
20260503205123 16 0 3.2 11.3 0.00 0.00 0.00 55 1011.8
20260503205023 16 0 3.2 11.3 0.00 0.00 0.00 55 1011.8
20260503204923 16 0 4.8 11.3 0.00 0.00 0.00 55 1011.9
20260503204822 16 0 6.4 11.3 0.00 0.00 0.00 55 1011.9
20260503204722 16 0 6.4 24.1 0.00 0.00 0.00 54 1011.9
20260503204622 16 0 6.4 24.1 0.00 0.00 0.00 53 1012.0
20260503204522 16 0 8.0 24.1 0.00 0.00 0.00 54 1011.9
20260503204423 16 0 6.4 24.1 0.00 0.00 0.00 54 1012.0
20260503204323 16 0 6.4 24.1 0.00 0.00 0.00 53 1012.1
20260503204223 16 0 6.4 24.1 0.00 0.00 0.00 53 1012.0
20260503204123 16 0 6.4 24.1 0.00 0.00 0.00 54 1012.1
20260503204022 16 0 6.4 24.1 0.00 0.00 0.00 52 1012.1
20260503203922 16 0 9.7 24.1 0.00 0.00 0.00 53 1012.2
20260503203822 16 0 9.7 24.1 0.00 0.00 0.00 53 1012.3
20260503203722 16 0 8.0 14.5 0.00 0.00 0.00 51 1012.2
20260503203622 16 0 8.0 14.5 0.00 0.00 0.00 52 1011.9
20260503203522 16 0 6.4 14.5 0.00 0.00 0.00 53 1011.7
20260503203422 16 0 4.8 16.1 0.00 0.00 0.00 51 1011.6
20260503203322 16 0 6.4 16.1 0.00 0.00 0.00 53 1011.5
20260503203222 16 0 4.8 16.1 0.00 0.00 0.00 52 1011.5
20260503203122 16 0 4.8 16.1 0.00 0.00 0.00 52 1011.4
20260503203023 16 0 3.2 16.1 0.00 0.00 0.00 52 1011.4
20260503202923 16 0 4.8 16.1 0.00 0.00 0.00 52 1011.5
20260503202822 16 0 4.8 16.1 0.00 0.00 0.00 52 1011.4
20260503202722 16 0 4.8 16.1 0.00 0.00 0.00 50 1011.5
20260503202622 16 0 6.4 16.1 0.00 0.00 0.00 50 1011.6
20260503202522 16 0 6.4 16.1 0.00 0.00 0.00 50 1011.5
20260503202422 16 0 6.4 14.5 0.00 0.00 0.00 50 1011.7
20260503202322 16 0 8.0 14.5 0.00 0.00 0.00 51 1011.7
20260503202222 16 0 6.4 14.5 0.00 0.00 0.00 50 1011.7
20260503202122 16 0 6.4 16.1 0.00 0.00 0.00 51 1011.8
20260503202022 16 0 6.4 16.1 0.00 0.00 0.00 50 1011.9
20260503201922 16 0 6.4 16.1 0.00 0.00 0.00 51 1012.0
20260503201822 16 0 6.4 16.1 0.00 0.00 0.00 52 1012.2
20260503201722 16 0 4.8 16.1 0.00 0.00 0.00 53 1012.3
20260503201622 16 0 6.4 16.1 0.00 0.00 0.00 52 1012.4
20260503201522 16 0 4.8 16.1 0.00 0.00 0.00 53 1012.4
20260503201422 16 0 4.8 16.1 0.00 0.00 0.00 52 1012.3
20260503201322 16 0 8.0 16.1 0.00 0.00 0.00 52 1012.5
20260503201222 16 0 8.0 16.1 0.00 0.00 0.00 52 1012.4
20260503201122 16 0 4.8 16.1 0.00 0.00 0.00 53 1012.6
20260503201022 16 0 6.4 16.1 0.00 0.00 0.00 52 1012.7
20260503200922 16 0 6.4 17.7 0.00 0.00 0.00 53 1012.8
20260503200822 16 0 6.4 17.7 0.00 0.00 0.00 51 1012.9
20260503200722 16 0 6.4 17.7 0.00 0.00 0.00 51 1012.9
20260503200622 16 0 9.7 17.7 0.00 0.00 0.00 50 1013.0
20260503200521 16 0 6.4 17.7 0.00 0.00 0.00 52 1013.0
20260503200421 16 0 4.8 17.7 0.00 0.00 0.00 50 1013.1
20260503200321 16 0 6.4 17.7 0.00 0.00 0.00 51 1013.2
20260503200221 16 0 6.4 17.7 0.00 0.00 0.00 52 1013.3
20260503200121 16 0 8.0 17.7 0.00 0.00 0.00 50 1013.3
20260503200022 16 0 8.0 17.7 0.00 0.00 0.00 52 1013.3
20260503195922 16 0 6.4 14.5 0.00 0.00 0.00 52 1013.3
20260503195822 16 0 4.8 14.5 0.00 0.00 0.00 52 1013.3
20260503195722 16 0 4.8 14.5 0.00 0.00 0.00 52 1013.3
20260503195621 16 0 6.4 14.5 0.00 0.00 0.00 52 1013.3
20260503195521 16 0 6.4 14.5 0.00 0.00 0.00 52 1013.1
20260503195421 16 0 6.4 14.5 0.00 0.00 0.00 51 1013.2
20260503195321 16 0 6.4 14.5 0.00 0.00 0.00 51 1013.2
20260503195221 16 0 6.4 14.5 0.00 0.00 0.00 51 1013.1
20260503195121 16 0 6.4 16.1 0.00 0.00 0.00 50 1013.2
20260503195021 16 0 4.8 16.1 0.00 0.00 0.00 50 1013.4
20260503194922 16 0 4.8 16.1 0.00 0.00 0.00 51 1013.4
20260503194822 16 0 4.8 22.5 0.00 0.00 0.00 50 1013.6
20260503194722 16 0 4.8 22.5 0.00 0.00 0.00 50 1013.7
20260503194621 16 0 4.8 22.5 0.00 0.00 0.00 50 1013.8
20260503194521 16 0 6.4 22.5 0.00 0.00 0.00 51 1013.8
20260503194421 16 0 6.4 22.5 0.00 0.00 0.00 51 1013.9
20260503194321 16 0 6.4 22.5 0.00 0.00 0.00 50 1013.9
20260503194221 16 0 9.7 22.5 0.00 0.00 0.00 49 1013.9
20260503194121 16 0 9.7 22.5 0.00 0.00 0.00 49 1014.0
20260503194021 16 0 11.3 22.5 0.00 0.00 0.00 49 1014.0
20260503193921 16 0 12.9 22.5 0.00 0.00 0.00 50 1014.0
20260503193821 16 0 11.3 27.4 0.00 0.00 0.00 49 1014.1
20260503193721 16 0 9.7 27.4 0.00 0.00 0.00 50 1014.0
20260503193621 16 0 6.4 27.4 0.00 0.00 0.00 50 1014.0
20260503193521 16 0 6.4 27.4 0.00 0.00 0.00 49 1014.1
20260503193421 16 0 6.4 27.4 0.00 0.00 0.00 48 1014.1
20260503193321 16 0 9.7 27.4 0.00 0.00 0.00 48 1014.1
20260503193221 16 0 9.7 27.4 0.00 0.00 0.00 48 1014.0
20260503193121 16 0 11.3 27.4 0.00 0.00 0.00 49 1014.0
20260503193021 17 0 11.3 27.4 0.00 0.00 0.00 49 1014.1
20260503192921 17 0 11.3 27.4 0.00 0.00 0.00 49 1014.1
20260503192821 17 0 9.7 25.7 0.00 0.00 0.00 50 1014.1
20260503192720 17 0 4.8 17.7 0.00 0.00 0.00 50 1014.1
20260503192620 17 0 4.8 29.0 0.00 0.00 0.00 49 1014.1
20260503192520 17 0 4.8 29.0 0.00 0.00 0.00 50 1014.0
20260503192421 17 0 8.0 29.0 0.00 0.00 0.00 48 1014.0
20260503192321 17 0 8.0 29.0 0.00 0.00 0.00 48 1014.0
20260503192221 17 0 8.0 29.0 0.00 0.00 0.00 48 1013.9
20260503192121 17 0 8.0 29.0 0.00 0.00 0.00 47 1014.0
20260503192021 17 0 9.7 29.0 0.00 0.00 0.00 47 1013.9
20260503191921 17 0 9.7 29.0 0.00 0.00 0.00 46 1013.9
20260503191821 17 0 12.9 29.0 0.00 0.00 0.00 47 1013.9
20260503191721 17 0 11.3 29.0 0.00 0.00 0.00 46 1013.8
20260503191619 17 0 8.0 19.3 0.00 0.00 0.00 46 1013.8
20260503191521 17 0 8.0 19.3 0.00 0.00 0.00 46 1013.8
20260503191420 17 0 8.0 19.3 0.00 0.00 0.00 48 1013.8
20260503191320 17 0 11.3 20.9 0.00 0.00 0.00 48 1013.8
20260503191220 17 0 9.7 20.9 0.00 0.00 0.00 47 1013.6
20260503191120 17 0 6.4 20.9 0.00 0.00 0.00 48 1013.4
20260503191020 17 0 9.7 20.9 0.00 0.00 0.00 47 1013.8
20260503190920 17 0 8.0 20.9 0.00 0.00 0.00 47 1013.9
20260503190820 17 0 8.0 20.9 0.00 0.00 0.00 47 1013.9
20260503190720 17 0 9.7 20.9 0.00 0.00 0.00 49 1013.8
20260503190620 17 0 8.0 20.9 0.00 0.00 0.00 50 1013.9
20260503190520 17 0 9.7 24.1 0.00 0.00 0.00 49 1013.9
20260503190420 17 0 11.3 25.7 0.00 0.00 0.00 48 1013.9
20260503190320 17 0 9.7 25.7 0.00 0.00 0.00 49 1013.8
20260503190220 18 0 8.0 25.7 0.00 0.00 0.00 46 1013.9
20260503190121 18 0 8.0 25.7 0.00 0.00 0.00 45 1013.8
20260503190020 18 0 8.0 25.7 0.00 0.00 0.00 45 1013.9
20260503185920 18 0 9.7 25.7 0.00 0.00 0.00 45 1013.9
20260503185820 18 0 9.7 25.7 0.00 0.00 0.00 44 1013.9
20260503185720 18 0 11.3 25.7 0.00 0.00 0.00 44 1013.9
20260503185621 18 0 11.3 25.7 0.00 0.00 0.00 45 1013.8
20260503185520 17 0 9.7 25.7 0.00 0.00 0.00 47 1013.9
20260503185420 17 0 9.7 25.7 0.00 0.00 0.00 47 1013.9
20260503185320 17 0 8.0 24.1 0.00 0.00 0.00 48 1013.9
20260503185220 17 0 8.0 24.1 0.00 0.00 0.00 47 1013.8
20260503185120 17 0 9.7 24.1 0.00 0.00 0.00 47 1013.8
20260503185019 17 0 9.7 24.1 0.00 0.00 0.00 47 1013.9
20260503184919 17 0 9.7 24.1 0.00 0.00 0.00 45 1014.0
20260503184820 17 0 8.0 24.1 0.00 0.00 0.00 48 1013.9
20260503184720 17 0 6.4 24.1 0.00 0.00 0.00 44 1014.1
20260503184620 17 0 9.7 24.1 0.00 0.00 0.00 45 1014.1
20260503184520 18 0 11.3 24.1 0.00 0.00 0.00 45 1014.0
20260503184420 18 0 11.3 24.1 0.00 0.00 0.00 45 1014.1
20260503184320 18 0 11.3 22.5 0.00 0.00 0.00 47 1014.2
20260503184220 18 0 9.7 22.5 0.00 0.00 0.00 48 1014.1
20260503184120 18 0 9.7 27.4 0.00 0.00 0.00 49 1014.1
20260503184019 18 0 8.0 27.4 0.00 0.00 0.00 52 1014.2
20260503183919 18 0 6.4 27.4 0.00 0.00 0.00 51 1014.3
20260503183819 18 0 6.4 27.4 0.00 0.00 0.00 52 1014.2
20260503183719 18 0 4.8 27.4 0.00 0.00 0.00 52 1014.2
20260503183619 18 0 6.4 27.4 0.00 0.00 0.00 51 1014.3
20260503183519 18 0 8.0 27.4 0.00 0.00 0.00 50 1014.2
20260503183419 18 0 9.7 27.4 0.00 0.00 0.00 49 1014.3
20260503183319 18 0 11.3 27.4 0.00 0.00 0.00 50 1014.4
20260503183219 18 0 11.3 27.4 0.00 0.00 0.00 47 1014.4
20260503183119 18 0 9.7 25.7 0.00 0.00 0.00 48 1014.5
20260503183019 18 0 11.3 25.7 0.00 0.00 0.00 48 1014.5
20260503182919 18 0 12.9 25.7 0.00 0.00 0.00 49 1014.5
20260503182819 18 0 12.9 22.5 0.00 0.00 0.00 50 1014.4
20260503182719 18 0 11.3 20.9 0.00 0.00 0.00 50 1014.5
20260503182619 18 0 9.7 20.9 0.00 0.00 0.00 48 1014.5
20260503182519 18 0 9.7 20.9 0.00 0.00 0.00 50 1014.6
20260503182419 18 0 8.0 17.7 0.00 0.00 0.00 49 1014.7
20260503182319 18 0 6.4 17.7 0.00 0.00 0.00 49 1014.6
20260503182219 18 0 8.0 17.7 0.00 0.00 0.00 48 1014.6
20260503182119 18 0 9.7 17.7 0.00 0.00 0.00 48 1014.6
20260503182019 17 0 9.7 17.7 0.00 0.00 0.00 49 1014.5
20260503181919 17 0 9.7 17.7 0.00 0.00 0.00 48 1014.6
20260503181820 17 0 8.0 19.3 0.00 0.00 0.00 48 1014.5
20260503181720 17 0 8.0 19.3 0.00 0.00 0.00 49 1014.6
20260503181619 17 0 6.4 19.3 0.00 0.00 0.00 50 1014.6
20260503181519 17 0 6.4 19.3 0.00 0.00 0.00 50 1014.5
20260503181419 17 0 8.0 19.3 0.00 0.00 0.00 52 1014.6
20260503181319 17 0 9.7 29.0 0.00 0.00 0.00 52 1014.6
20260503181219 17 0 8.0 29.0 0.00 0.00 0.00 54 1014.5
20260503181119 17 0 6.4 29.0 0.00 0.00 0.00 54 1014.7
20260503181019 17 0 8.0 29.0 0.00 0.00 0.00 55 1014.8
20260503180919 17 0 11.3 29.0 0.00 0.00 0.00 53 1014.7
20260503180819 17 0 9.7 29.0 0.00 0.00 0.00 53 1014.9
20260503180719 17 0 6.4 29.0 0.00 0.00 0.00 54 1015.0
20260503180619 17 0 8.0 29.0 0.00 0.00 0.00 51 1014.9
20260503180519 17 0 12.9 29.0 0.00 0.00 0.00 51 1014.9
20260503180418 17 0 14.5 29.0 0.00 0.00 0.00 52 1014.9
20260503180318 17 0 14.5 25.7 0.00 0.00 0.00 51 1014.9
20260503180219 17 0 12.9 25.7 0.00 0.00 0.00 50 1015.1
20260503180119 17 0 9.7 22.5 0.00 0.00 0.00 54 1014.9
20260503180019 17 0 11.3 25.7 0.00 0.00 0.00 51 1015.1
20260503175919 17 0 11.3 25.7 0.00 0.00 0.00 52 1015.1
20260503175819 17 0 9.7 25.7 0.00 0.00 0.00 50 1015.1
20260503175719 17 0 9.7 25.7 0.00 0.00 0.00 49 1015.1
20260503175619 17 0 11.3 25.7 0.00 0.00 0.00 49 1015.2
20260503175519 17 0 11.3 25.7 0.00 0.00 0.00 49 1015.1
20260503175418 17 0 9.7 25.7 0.00 0.00 0.00 49 1015.1
20260503175318 17 0 9.7 25.7 0.00 0.00 0.00 52 1015.2
20260503175219 17 0 11.3 25.7 0.00 0.00 0.00 49 1015.3
20260503175117 17 0 11.3 29.0 0.00 0.00 0.00 49 1015.4
20260503175018 17 0 11.3 29.0 0.00 0.00 0.00 49 1015.4
20260503174918 17 0 11.3 29.0 0.00 0.00 0.00 50 1015.3
20260503174818 17 0 9.7 29.0 0.00 0.00 0.00 54 1015.4
20260503174718 17 0 9.7 29.0 0.00 0.00 0.00 54 1015.4
20260503174618 16 0 12.9 32.2 0.00 0.00 0.00 55 1015.4
20260503174518 16 0 11.3 32.2 0.00 0.00 0.00 53 1015.5
20260503174419 16 0 9.7 32.2 0.00 0.00 0.00 53 1015.3
20260503174319 16 0 11.3 32.2 0.00 0.00 0.00 50 1015.3
20260503174218 16 0 11.3 32.2 0.00 0.00 0.00 54 1015.5
20260503174118 16 0 9.7 32.2 0.00 0.00 0.00 53 1015.6
20260503174018 16 0 11.3 32.2 0.00 0.00 0.00 53 1015.6
20260503173918 16 0 12.9 32.2 0.00 0.00 0.00 53 1015.8
20260503173818 16 0 16.1 32.2 0.00 0.00 0.00 53 1015.7
20260503173718 16 0 14.5 32.2 0.00 0.00 0.00 55 1015.8
20260503173618 16 0 9.7 22.5 0.00 0.00 0.00 55 1015.8
20260503173518 16 0 9.7 20.9 0.00 0.00 0.00 57 1015.8
20260503173418 16 0 8.0 20.9 0.00 0.00 0.00 53 1015.8
20260503173318 16 0 6.4 27.4 0.00 0.00 0.00 55 1015.8
20260503173218 16 0 4.8 27.4 0.00 0.00 0.00 53 1015.8
20260503173118 16 0 6.4 27.4 0.00 0.00 0.00 53 1015.9
20260503173018 16 0 6.4 27.4 0.00 0.00 0.00 54 1015.9
20260503172918 16 0 9.7 27.4 0.00 0.00 0.00 54 1016.0
20260503172818 16 0 12.9 27.4 0.00 0.00 0.00 54 1016.0
20260503172718 16 0 12.9 27.4 0.00 0.00 0.00 52 1015.9
20260503172618 16 0 11.3 27.4 0.00 0.00 0.00 54 1016.0
20260503172518 16 0 12.9 27.4 0.00 0.00 0.00 52 1016.1
20260503172418 16 0 11.3 27.4 0.00 0.00 0.00 55 1016.0
20260503172318 16 0 8.0 27.4 0.00 0.00 0.00 53 1015.9
20260503172218 16 0 6.4 27.4 0.00 0.00 0.00 51 1016.0
20260503172118 16 0 6.4 27.4 0.00 0.00 0.00 56 1016.0
20260503172018 16 0 6.4 27.4 0.00 0.00 0.00 52 1016.0
20260503171918 16 0 9.7 27.4 0.00 0.00 0.00 51 1016.0
20260503171817 16 0 9.7 27.4 0.00 0.00 0.00 50 1016.1
20260503171718 16 0 11.3 27.4 0.00 0.00 0.00 54 1016.1
20260503171618 16 0 12.9 27.4 0.00 0.00 0.00 53 1016.1
20260503171518 16 0 14.5 27.4 0.00 0.00 0.00 52 1016.3
20260503171418 16 0 14.5 25.7 0.00 0.00 0.00 52 1016.3
20260503171318 16 0 14.5 27.4 0.00 0.00 0.00 52 1016.4
20260503171217 16 0 11.3 27.4 0.00 0.00 0.00 54 1016.4
20260503171116 16 0 8.0 27.4 0.00 0.00 0.00 51 1016.4
20260503171017 16 0 9.7 27.4 0.00 0.00 0.00 50 1016.4
20260503170917 16 0 9.7 27.4 0.00 0.00 0.00 54 1016.5
20260503170817 16 0 9.7 27.4 0.00 0.00 0.00 55 1016.5
20260503170717 16 0 11.3 27.4 0.00 0.00 0.00 55 1016.4
20260503170617 16 0 12.9 27.4 0.00 0.00 0.00 53 1016.3
20260503170517 16 0 12.9 27.4 0.00 0.00 0.00 53 1016.4
20260503170417 16 0 11.3 30.6 0.00 0.00 0.00 53 1016.2
20260503170318 16 0 9.7 30.6 0.00 0.00 0.00 59 1016.3
20260503170218 16 0 9.7 30.6 0.00 0.00 0.00 57 1016.3
20260503170118 16 0 8.0 30.6 0.00 0.00 0.00 57 1016.2
20260503160217 15 0 9.7 25.7 0.00 0.00 0.00 58 1017.3
20260503160116 15 0 8.0 16.1 0.00 0.00 0.00 56 1017.3
20260503150915 13 0 6.4 16.1 0.00 0.00 0.00 61 1017.6
20260503150815 13 0 6.4 17.7 0.00 0.00 0.00 61 1017.7
20260503150715 13 0 6.4 17.7 0.00 0.00 0.00 61 1017.7
20260503150615 13 0 8.0 17.7 0.00 0.00 0.00 61 1017.7
20260503150515 13 0 8.0 17.7 0.00 0.00 0.00 60 1017.8
20260503150414 13 0 8.0 20.9 0.00 0.00 0.00 61 1017.8
20260503150314 13 0 6.4 20.9 0.00 0.00 0.00 62 1017.9
20260503150214 13 0 6.4 20.9 0.00 0.00 0.00 60 1017.9
20260503150115 13 0 8.0 22.5 0.00 0.00 0.00 62 1017.9
20260503140313 11 0 6.4 17.7 0.00 0.00 0.00 72 1018.0
20260503140213 11 0 6.4 17.7 0.00 0.00 0.00 73 1018.1
20260503140114 11 0 6.4 17.7 0.00 0.00 0.00 73 1018.2
20260503131413 9 0 3.2 9.7 0.00 0.00 0.00 79 1017.9
20260503131313 9 0 3.2 9.7 0.00 0.00 0.00 79 1018.0
20260503131212 9 0 3.2 9.7 0.00 0.00 0.00 79 1017.9
20260503131112 9 0 4.8 9.7 0.00 0.00 0.00 80 1018.0
20260503131012 8 0 4.8 9.7 0.00 0.00 0.00 80 1017.9
20260503130912 8 0 3.2 8.0 0.00 0.00 0.00 81 1018.0
20260503130812 8 0 3.2 8.0 0.00 0.00 0.00 81 1017.9
20260503130712 8 0 3.2 8.0 0.00 0.00 0.00 81 1018.0
20260503130612 8 0 3.2 8.0 0.00 0.00 0.00 81 1018.0
20260503130512 8 0 3.2 8.0 0.00 0.00 0.00 82 1017.9
20260503130412 8 0 3.2 8.0 0.00 0.00 0.00 82 1018.0
20260503130312 8 0 3.2 8.0 0.00 0.00 0.00 81 1018.0
20260503130211 8 0 3.2 8.0 0.00 0.00 0.00 81 1018.0
20260503130112 8 0 4.8 8.0 0.00 0.00 0.00 82 1018.0
20260503120210 3 0 1.6 3.2 0.00 0.00 0.00 88 1018.1
20260503120110 3 0 1.6 3.2 0.00 0.00 0.00 88 1018.1
20260503110809 2 351 0.0 1.6 0.00 0.00 0.00 88 1017.8
20260503110709 2 351 0.0 1.6 0.00 0.00 0.00 88 1017.8
20260503110609 2 351 0.0 1.6 0.00 0.00 0.00 88 1017.8
20260503110509 2 351 0.0 1.6 0.00 0.00 0.00 88 1017.8
20260503110409 2 351 0.0 1.6 0.00 0.00 0.00 88 1017.8
20260503110309 2 351 0.0 1.6 0.00 0.00 0.00 88 1017.8
20260503110209 2 351 0.0 1.6 0.00 0.00 0.00 88 1017.7
20260503110109 2 351 0.0 1.6 0.00 0.00 0.00 88 1017.8
20260503100208 2 351 0.0 0.0 0.00 0.00 0.00 88 1017.6
20260503100108 2 351 0.0 0.0 0.00 0.00 0.00 88 1017.6
20260503090506 2 351 0.0 0.0 0.00 0.00 0.00 88 1017.7
20260503090406 2 351 0.0 0.0 0.00 0.00 0.00 88 1017.7
20260503090306 2 351 0.0 0.0 0.00 0.00 0.00 88 1017.6
20260503090206 2 351 0.0 0.0 0.00 0.00 0.00 88 1017.7
20260503090106 2 351 0.0 0.0 0.00 0.00 0.00 88 1017.7
20260503081605 2 0 1.6 1.6 0.00 0.00 0.00 88 1017.7
20260503081505 2 0 1.6 1.6 0.00 0.00 0.00 88 1017.8
20260503081405 2 0 0.0 1.6 0.00 0.00 0.00 88 1017.7
20260503081305 2 0 0.0 1.6 0.00 0.00 0.00 88 1017.7
20260503081205 2 0 0.0 1.6 0.00 0.00 0.00 88 1017.8
20260503081105 2 0 0.0 1.6 0.00 0.00 0.00 88 1017.7
20260503081005 2 0 0.0 1.6 0.00 0.00 0.00 88 1017.7
20260503080905 2 0 0.0 1.6 0.00 0.00 0.00 88 1017.7
20260503080805 2 0 0.0 1.6 0.00 0.00 0.00 88 1017.7
20260503080705 2 0 0.0 1.6 0.00 0.00 0.00 88 1017.7
20260503080605 2 0 0.0 1.6 0.00 0.00 0.00 88 1017.7
20260503080505 2 0 0.0 1.6 0.00 0.00 0.00 88 1017.7
20260503080405 2 0 0.0 1.6 0.00 0.00 0.00 88 1017.7
20260503080305 2 0 0.0 1.6 0.00 0.00 0.00 88 1017.7
20260503080204 2 0 0.0 1.6 0.00 0.00 0.00 88 1017.7
20260503080105 2 0 0.0 0.0 0.00 0.00 0.00 88 1017.8
20260503072904 2 350 0.0 1.6 0.00 0.00 0.00 88 1017.7
20260503072804 2 350 0.0 1.6 0.00 0.00 0.00 88 1017.7
20260503072704 2 350 0.0 1.6 0.00 0.00 0.00 88 1017.7
20260503072604 2 350 0.0 1.6 0.00 0.00 0.00 88 1017.7
20260503072504 2 350 0.0 1.6 0.00 0.00 0.00 88 1017.7
20260503072404 2 350 0.0 1.6 0.00 0.00 0.00 88 1017.7
20260503072305 2 350 0.0 0.0 0.00 0.00 0.00 88 1017.7
20260503072204 2 350 0.0 0.0 0.00 0.00 0.00 88 1017.7
20260503072104 2 350 0.0 0.0 0.00 0.00 0.00 88 1017.6
20260503072004 2 350 0.0 0.0 0.00 0.00 0.00 88 1017.6
20260503071904 3 350 0.0 1.6 0.00 0.00 0.00 88 1017.7
20260503071804 3 350 0.0 1.6 0.00 0.00 0.00 88 1017.7
20260503071704 3 350 0.0 1.6 0.00 0.00 0.00 88 1017.7
20260503071604 3 350 0.0 1.6 0.00 0.00 0.00 88 1017.8
20260503071504 3 350 0.0 1.6 0.00 0.00 0.00 88 1017.7
20260503071404 3 350 0.0 1.6 0.00 0.00 0.00 88 1017.7
20260503071304 3 350 0.0 1.6 0.00 0.00 0.00 88 1017.7
20260503071204 3 350 0.0 1.6 0.00 0.00 0.00 88 1017.7
20260503071103 3 350 0.0 1.6 0.00 0.00 0.00 88 1017.7
20260503071004 3 350 0.0 1.6 0.00 0.00 0.00 88 1017.7
20260503070904 3 350 0.0 1.6 0.00 0.00 0.00 88 1017.8
20260503070804 3 350 0.0 3.2 0.00 0.00 0.00 88 1017.8
20260503070704 3 350 0.0 3.2 0.00 0.00 0.00 88 1017.8
20260503070603 3 350 0.0 3.2 0.00 0.00 0.00 88 1017.8
20260503070503 3 350 0.0 3.2 0.00 0.00 0.00 88 1017.8
20260503070403 3 350 0.0 3.2 0.00 0.00 0.00 88 1017.8
20260503070302 3 350 0.0 3.2 0.00 0.00 0.00 88 1017.9
20260503070203 3 350 0.0 3.2 0.00 0.00 0.00 88 1017.9
20260503070103 3 350 1.6 3.2 0.00 0.00 0.00 88 1017.8
20260503060331 3 350 0.0 1.6 0.00 0.00 0.00 88 1018.2
20260503060231 3 348 1.6 1.6 0.00 0.00 0.00 88 1018.2
20260503060131 3 348 1.6 1.6 0.00 0.00 0.00 88 1018.2
20260503055119 3 350 0.0 0.0 0.00 0.00 0.00 88 1018.1
20260503055017 3 350 0.0 0.0 0.00 0.00 0.00 88 1018.2
20260503054915 3 350 0.0 0.0 0.00 0.00 0.00 88 1018.2
20260503054814 3 350 0.0 0.0 0.00 0.00 0.00 88 1018.1
20260503054713 3 350 0.0 0.0 0.00 0.00 0.00 88 1018.2
20260503054611 3 350 0.0 0.0 0.00 0.00 0.00 88 1018.2
20260503054507 3 350 0.0 0.0 0.00 0.00 0.00 88 1018.2
20260503054406 3 350 0.0 0.0 0.00 0.00 0.00 88 1018.2
20260503054304 3 350 0.0 0.0 0.00 0.00 0.00 88 1018.2
20260503054203 3 350 0.0 0.0 0.00 0.00 0.00 88 1018.2
20260503054101 3 350 0.0 0.0 0.00 0.00 0.00 88 1018.2
20260503054002 3 350 0.0 0.0 0.00 0.00 0.00 88 1018.2
20260503053902 3 350 0.0 0.0 0.00 0.00 0.00 88 1018.2
20260503053801 3 350 0.0 0.0 0.00 0.00 0.00 88 1018.2
20260503053702 3 350 0.0 0.0 0.00 0.00 0.00 88 1018.2
20260503053602 3 350 0.0 0.0 0.00 0.00 0.00 88 1018.2
20260503053503 3 350 0.0 1.6 0.00 0.00 0.00 88 1018.2
20260503053404 3 350 0.0 1.6 0.00 0.00 0.00 88 1018.2
20260503053302 3 350 0.0 1.6 0.00 0.00 0.00 88 1018.2
20260503053202 3 350 0.0 1.6 0.00 0.00 0.00 88 1018.2
20260503053102 3 350 0.0 1.6 0.00 0.00 0.00 88 1018.2
20260503053002 3 350 0.0 1.6 0.00 0.00 0.00 88 1018.2
20260503052902 3 350 0.0 1.6 0.00 0.00 0.00 88 1018.1
20260503052802 3 350 0.0 1.6 0.00 0.00 0.00 88 1018.1
20260503052702 3 350 0.0 1.6 0.00 0.00 0.00 88 1018.2
20260503052602 3 350 0.0 1.6 0.00 0.00 0.00 88 1018.1
20260503052502 3 350 0.0 1.6 0.00 0.00 0.00 88 1018.1
20260503052401 3 350 0.0 1.6 0.00 0.00 0.00 88 1018.1
20260503052301 3 350 0.0 1.6 0.00 0.00 0.00 88 1018.1
20260503052201 3 350 0.0 1.6 0.00 0.00 0.00 88 1018.1
20260503052101 3 350 0.0 1.6 0.00 0.00 0.00 88 1018.1
20260503052001 3 350 0.0 1.6 0.00 0.00 0.00 88 1018.1
20260503051901 3 350 0.0 1.6 0.00 0.00 0.00 88 1018.1
20260503051801 3 350 0.0 1.6 0.00 0.00 0.00 88 1018.1
20260503051701 3 350 0.0 1.6 0.00 0.00 0.00 88 1018.0
20260503051601 3 350 0.0 1.6 0.00 0.00 0.00 88 1018.2
20260503051501 3 350 0.0 1.6 0.00 0.00 0.00 87 1018.1
20260503051401 3 350 0.0 1.6 0.00 0.00 0.00 87 1018.1
20260503051301 3 350 0.0 1.6 0.00 0.00 0.00 87 1018.2
20260503051201 3 350 0.0 1.6 0.00 0.00 0.00 87 1018.2
20260503051101 3 350 0.0 1.6 0.00 0.00 0.00 88 1018.1
20260503051001 3 350 0.0 1.6 0.00 0.00 0.00 88 1018.1
20260503050901 3 350 0.0 1.6 0.00 0.00 0.00 87 1018.2
20260503050801 3 350 0.0 1.6 0.00 0.00 0.00 87 1018.1
20260503050701 3 350 0.0 1.6 0.00 0.00 0.00 87 1018.1
20260503050601 3 350 0.0 1.6 0.00 0.00 0.00 87 1018.2
20260503050501 3 350 0.0 1.6 0.00 0.00 0.00 87 1018.2
20260503050401 3 350 0.0 1.6 0.00 0.00 0.00 87 1018.2
20260503050301 3 350 0.0 0.0 0.00 0.00 0.00 87 1018.2
20260503050201 3 350 0.0 0.0 0.00 0.00 0.00 87 1018.2
20260503050101 3 350 0.0 0.0 0.00 0.00 0.00 87 1018.2
20260503050000 3 350 0.0 0.0 0.00 0.00 0.00 87 1018.2
20260503045859 3 350 0.0 0.0 0.00 0.00 0.00 87 1018.3
20260503045800 3 350 0.0 0.0 0.00 0.00 0.00 87 1018.3
20260503045700 3 350 0.0 0.0 0.00 0.00 0.00 87 1018.2
20260503045600 3 350 0.0 0.0 0.00 0.00 0.00 87 1018.3
20260503045500 3 350 0.0 0.0 0.00 0.00 0.00 87 1018.3
20260503045400 3 350 0.0 0.0 0.00 0.00 0.00 87 1018.3
20260503045300 3 350 0.0 0.0 0.00 0.00 0.00 87 1018.2
20260503045200 3 350 0.0 0.0 0.00 0.00 0.00 87 1018.2
20260503045100 3 350 0.0 0.0 0.00 0.00 0.00 87 1018.3
20260503045000 3 350 0.0 0.0 0.00 0.00 0.00 87 1018.2
20260503044900 3 350 0.0 0.0 0.00 0.00 0.00 87 1018.3
20260503044800 3 350 0.0 0.0 0.00 0.00 0.00 87 1018.2
20260503044700 3 350 0.0 0.0 0.00 0.00 0.00 87 1018.3
20260503044600 3 350 0.0 0.0 0.00 0.00 0.00 87 1018.3
20260503044500 3 350 0.0 0.0 0.00 0.00 0.00 87 1018.3
20260503044400 3 350 0.0 0.0 0.00 0.00 0.00 87 1018.2
20260503044300 3 350 0.0 0.0 0.00 0.00 0.00 87 1018.3
20260503044200 3 350 0.0 0.0 0.00 0.00 0.00 87 1018.2
20260503044100 3 350 0.0 0.0 0.00 0.00 0.00 87 1018.3
20260503044000 3 350 0.0 0.0 0.00 0.00 0.00 87 1018.2
20260503043900 3 350 0.0 0.0 0.00 0.00 0.00 87 1018.2
20260503043800 3 350 0.0 0.0 0.00 0.00 0.00 87 1018.2
20260503043700 3 350 0.0 0.0 0.00 0.00 0.00 87 1018.2
20260503043600 3 350 0.0 0.0 0.00 0.00 0.00 87 1018.2
20260503043500 3 350 0.0 0.0 0.00 0.00 0.00 87 1018.2
20260503043400 3 0 0.0 0.0 0.00 0.00 0.00 86 1018.1
20260503043300 3 0 0.0 0.0 0.00 0.00 0.00 87 1018.2
20260503043200 3 348 0.0 0.0 0.00 0.00 0.00 87 1018.1
20260503043100 3 350 0.0 0.0 0.00 0.00 0.00 86 1018.2
20260503043000 3 350 0.0 0.0 0.00 0.00 0.00 86 1018.2
20260503042900 3 350 0.0 0.0 0.00 0.00 0.00 86 1018.2
20260503042800 3 350 0.0 0.0 0.00 0.00 0.00 86 1018.1
20260503042659 3 350 0.0 0.0 0.00 0.00 0.00 86 1018.2
20260503042600 3 350 0.0 0.0 0.00 0.00 0.00 86 1018.1
20260503042459 3 350 0.0 0.0 0.00 0.00 0.00 86 1018.1
20260503042359 3 350 0.0 0.0 0.00 0.00 0.00 86 1018.2
20260503042259 4 350 0.0 0.0 0.00 0.00 0.00 86 1018.2
20260503042159 4 350 0.0 0.0 0.00 0.00 0.00 86 1018.2
20260503042059 4 350 0.0 0.0 0.00 0.00 0.00 86 1018.2
20260503041959 4 350 0.0 0.0 0.00 0.00 0.00 86 1018.2
20260503041859 4 350 0.0 0.0 0.00 0.00 0.00 86 1018.2
20260503041759 4 350 0.0 0.0 0.00 0.00 0.00 86 1018.3
20260503041659 4 350 0.0 0.0 0.00 0.00 0.00 86 1018.2
20260503041613 4 350 0.0 0.0 0.00 0.00 0.00 86 1018.2
20260503041459 4 350 0.0 0.0 0.00 0.00 0.00 86 1018.2
20260503041359 4 350 0.0 0.0 0.00 0.00 0.00 86 1018.2
20260503041259 4 350 0.0 0.0 0.00 0.00 0.00 86 1018.3
20260503041159 4 350 0.0 0.0 0.00 0.00 0.00 86 1018.3
20260503041059 4 350 0.0 0.0 0.00 0.00 0.00 86 1018.2
20260503040959 4 350 0.0 0.0 0.00 0.00 0.00 86 1018.3
20260503040859 4 350 0.0 0.0 0.00 0.00 0.00 86 1018.2
20260503040759 4 350 0.0 0.0 0.00 0.00 0.00 86 1018.2
20260503040659 4 350 0.0 0.0 0.00 0.00 0.00 86 1018.2
20260503040559 4 350 0.0 0.0 0.00 0.00 0.00 85 1018.2
20260503040459 4 350 0.0 0.0 0.00 0.00 0.00 85 1018.2
20260503040359 4 350 0.0 0.0 0.00 0.00 0.00 85 1018.2
20260503040259 4 350 0.0 0.0 0.00 0.00 0.00 85 1018.3
20260503040159 4 350 0.0 0.0 0.00 0.00 0.00 85 1018.3
20260503040059 4 350 0.0 0.0 0.00 0.00 0.00 85 1018.3
20260503035959 4 350 0.0 0.0 0.00 0.00 0.00 85 1018.3
20260503035859 4 350 0.0 0.0 0.00 0.00 0.00 85 1018.3
20260503035759 4 350 0.0 0.0 0.00 0.00 0.00 85 1018.4
20260503035659 4 350 0.0 0.0 0.00 0.00 0.00 85 1018.3
20260503035559 4 351 0.0 0.0 0.00 0.00 0.00 85 1018.3
20260503035459 4 351 0.0 0.0 0.00 0.00 0.00 85 1018.3
20260503035359 4 351 0.0 0.0 0.00 0.00 0.00 85 1018.3
20260503035259 4 351 0.0 0.0 0.00 0.00 0.00 85 1018.3
20260503035159 4 348 0.0 0.0 0.00 0.00 0.00 85 1018.4
20260503035059 4 350 0.0 0.0 0.00 0.00 0.00 85 1018.3
20260503034959 4 350 0.0 0.0 0.00 0.00 0.00 85 1018.4
20260503034859 4 350 0.0 0.0 0.00 0.00 0.00 85 1018.3
20260503034759 4 350 0.0 0.0 0.00 0.00 0.00 85 1018.4
20260503034659 4 350 0.0 0.0 0.00 0.00 0.00 84 1018.3
20260503034559 4 351 0.0 0.0 0.00 0.00 0.00 85 1018.3
20260503034459 4 350 0.0 0.0 0.00 0.00 0.00 85 1018.3
20260503034359 4 350 0.0 0.0 0.00 0.00 0.00 84 1018.3
20260503034259 4 350 0.0 0.0 0.00 0.00 0.00 84 1018.3
20260503034159 4 350 0.0 0.0 0.00 0.00 0.00 84 1018.3
20260503034058 4 350 0.0 0.0 0.00 0.00 0.00 84 1018.3
20260503033958 4 350 0.0 0.0 0.00 0.00 0.00 84 1018.3
20260503033858 4 350 0.0 0.0 0.00 0.00 0.00 84 1018.4
20260503033758 4 350 0.0 0.0 0.00 0.00 0.00 83 1018.3
20260503033658 4 350 0.0 0.0 0.00 0.00 0.00 83 1018.3
20260503033558 4 350 0.0 0.0 0.00 0.00 0.00 83 1018.3
20260503033459 4 350 0.0 0.0 0.00 0.00 0.00 83 1018.3
20260503033357 4 350 0.0 0.0 0.00 0.00 0.00 83 1018.2
20260503033258 5 350 0.0 0.0 0.00 0.00 0.00 83 1018.2
20260503033158 5 350 0.0 0.0 0.00 0.00 0.00 83 1018.2
20260503033058 5 350 0.0 0.0 0.00 0.00 0.00 82 1018.3
20260503032958 5 350 0.0 0.0 0.00 0.00 0.00 82 1018.3
20260503032858 5 350 0.0 0.0 0.00 0.00 0.00 82 1018.3
20260503032758 5 350 0.0 0.0 0.00 0.00 0.00 82 1018.3
20260503032658 5 350 0.0 0.0 0.00 0.00 0.00 82 1018.2
20260503032558 5 350 0.0 0.0 0.00 0.00 0.00 82 1018.3
20260503032458 5 350 0.0 0.0 0.00 0.00 0.00 82 1018.3
20260503032358 5 350 0.0 0.0 0.00 0.00 0.00 82 1018.2
20260503032258 5 350 0.0 0.0 0.00 0.00 0.00 82 1018.2
20260503032158 5 350 0.0 0.0 0.00 0.00 0.00 82 1018.2
20260503032058 5 350 0.0 0.0 0.00 0.00 0.00 81 1018.2
20260503031958 5 351 0.0 0.0 0.00 0.00 0.00 81 1018.2
20260503031858 5 350 0.0 0.0 0.00 0.00 0.00 81 1018.2
20260503031758 5 350 0.0 0.0 0.00 0.00 0.00 81 1018.3
20260503031658 5 350 0.0 0.0 0.00 0.00 0.00 81 1018.2
20260503031558 5 351 0.0 0.0 0.00 0.00 0.00 81 1018.3
20260503031458 5 350 0.0 0.0 0.00 0.00 0.00 81 1018.2
20260503031358 5 350 0.0 0.0 0.00 0.00 0.00 81 1018.3
20260503031258 5 350 0.0 0.0 0.00 0.00 0.00 81 1018.2
20260503031158 5 350 0.0 0.0 0.00 0.00 0.00 80 1018.3
20260503031058 5 350 0.0 0.0 0.00 0.00 0.00 80 1018.3
20260503030958 5 350 0.0 0.0 0.00 0.00 0.00 80 1018.3
20260503030858 5 350 0.0 0.0 0.00 0.00 0.00 80 1018.3
20260503030758 5 350 0.0 0.0 0.00 0.00 0.00 80 1018.3
20260503030658 5 350 0.0 0.0 0.00 0.00 0.00 80 1018.3
20260503030558 5 350 0.0 0.0 0.00 0.00 0.00 80 1018.3
20260503030458 5 350 0.0 0.0 0.00 0.00 0.00 79 1018.3
20260503030357 5 351 0.0 0.0 0.00 0.00 0.00 79 1018.2
20260503030259 5 351 0.0 0.0 0.00 0.00 0.00 79 1018.2
20260503030158 5 351 0.0 0.0 0.00 0.00 0.00 79 1018.2
20260503030058 5 351 0.0 0.0 0.00 0.00 0.00 79 1018.2
20260503025958 5 351 0.0 0.0 0.00 0.00 0.00 79 1018.3
20260503025858 5 351 0.0 0.0 0.00 0.00 0.00 79 1018.2
20260503025758 5 351 0.0 0.0 0.00 0.00 0.00 79 1018.3
20260503025658 5 351 0.0 0.0 0.00 0.00 0.00 79 1018.3
20260503025557 5 351 0.0 0.0 0.00 0.00 0.00 79 1018.3
20260503025457 5 351 0.0 0.0 0.00 0.00 0.00 79 1018.3
20260503025358 5 351 0.0 0.0 0.00 0.00 0.00 79 1018.3
20260503025258 5 351 0.0 0.0 0.00 0.00 0.00 79 1018.3
20260503025158 5 351 0.0 0.0 0.00 0.00 0.00 79 1018.3
20260503025058 5 351 0.0 0.0 0.00 0.00 0.00 79 1018.3
20260503024958 5 351 0.0 0.0 0.00 0.00 0.00 78 1018.3
20260503024858 5 351 0.0 0.0 0.00 0.00 0.00 78 1018.3
20260503024758 5 351 0.0 0.0 0.00 0.00 0.00 78 1018.3
20260503024658 5 351 0.0 0.0 0.00 0.00 0.00 78 1018.3
20260503024558 5 351 0.0 0.0 0.00 0.00 0.00 79 1018.3
20260503024457 5 351 0.0 0.0 0.00 0.00 0.00 78 1018.3
20260503024357 5 351 0.0 0.0 0.00 0.00 0.00 78 1018.3
20260503024257 5 351 0.0 0.0 0.00 0.00 0.00 78 1018.2
20260503024157 5 351 0.0 0.0 0.00 0.00 0.00 78 1018.3
20260503024058 5 351 0.0 0.0 0.00 0.00 0.00 78 1018.3
20260503023958 5 351 0.0 0.0 0.00 0.00 0.00 78 1018.3
20260503023858 5 351 0.0 0.0 0.00 0.00 0.00 78 1018.3
20260503023758 5 351 0.0 0.0 0.00 0.00 0.00 77 1018.3
20260503023658 5 351 0.0 0.0 0.00 0.00 0.00 77 1018.3
20260503023558 5 351 0.0 0.0 0.00 0.00 0.00 77 1018.3
20260503023457 6 351 0.0 0.0 0.00 0.00 0.00 77 1018.2
20260503023357 6 351 0.0 0.0 0.00 0.00 0.00 76 1018.2
20260503023258 6 351 0.0 0.0 0.00 0.00 0.00 76 1018.3
20260503023158 6 351 0.0 0.0 0.00 0.00 0.00 75 1018.2
20260503023057 6 351 0.0 0.0 0.00 0.00 0.00 75 1018.3
20260503022957 6 351 0.0 0.0 0.00 0.00 0.00 75 1018.2
20260503022857 6 351 0.0 0.0 0.00 0.00 0.00 75 1018.3
20260503022757 6 351 0.0 0.0 0.00 0.00 0.00 75 1018.2
20260503022657 6 351 0.0 0.0 0.00 0.00 0.00 75 1018.3
20260503022557 6 351 0.0 0.0 0.00 0.00 0.00 75 1018.2
20260503022457 6 351 0.0 0.0 0.00 0.00 0.00 75 1018.2
20260503022357 6 351 0.0 0.0 0.00 0.00 0.00 74 1018.2
20260503022257 6 351 0.0 0.0 0.00 0.00 0.00 74 1018.3
20260503022157 6 351 0.0 0.0 0.00 0.00 0.00 74 1018.2
20260503022057 6 351 0.0 0.0 0.00 0.00 0.00 74 1018.2
20260503021957 6 351 0.0 0.0 0.00 0.00 0.00 74 1018.2
20260503021856 6 351 0.0 0.0 0.00 0.00 0.00 74 1018.2
20260503021757 6 351 0.0 0.0 0.00 0.00 0.00 74 1018.2
20260503021657 6 351 0.0 0.0 0.00 0.00 0.00 74 1018.1
20260503021557 6 351 0.0 0.0 0.00 0.00 0.00 74 1018.1
20260503021457 6 351 0.0 0.0 0.00 0.00 0.00 74 1018.1
20260503021357 6 351 0.0 0.0 0.00 0.00 0.00 74 1018.1
20260503021257 6 351 0.0 0.0 0.00 0.00 0.00 74 1018.1
20260503021157 6 351 0.0 0.0 0.00 0.00 0.00 74 1018.2
20260503021056 6 351 0.0 0.0 0.00 0.00 0.00 74 1018.1
20260503020956 6 351 0.0 0.0 0.00 0.00 0.00 74 1018.1
20260503020855 6 351 0.0 0.0 0.00 0.00 0.00 73 1018.2
20260503020757 6 351 0.0 0.0 0.00 0.00 0.00 73 1018.2
20260503020657 6 351 0.0 0.0 0.00 0.00 0.00 73 1018.1
20260503020557 7 351 0.0 0.0 0.00 0.00 0.00 73 1018.1
20260503020457 7 351 0.0 0.0 0.00 0.00 0.00 72 1018.1
20260503020357 7 351 0.0 0.0 0.00 0.00 0.00 72 1018.1
20260503020256 7 351 0.0 0.0 0.00 0.00 0.00 72 1018.1
20260503020156 7 351 0.0 0.0 0.00 0.00 0.00 72 1018.1
20260503020056 7 351 0.0 0.0 0.00 0.00 0.00 72 1018.1
20260503015956 7 351 0.0 0.0 0.00 0.00 0.00 72 1018.0
20260503015856 7 351 0.0 0.0 0.00 0.00 0.00 71 1018.0
20260503015757 7 351 0.0 0.0 0.00 0.00 0.00 71 1018.0
20260503015657 7 351 0.0 0.0 0.00 0.00 0.00 71 1018.0
20260503015557 7 351 0.0 0.0 0.00 0.00 0.00 70 1018.0
20260503015456 7 351 0.0 0.0 0.00 0.00 0.00 70 1018.0
20260503015356 7 351 0.0 0.0 0.00 0.00 0.00 70 1018.0
20260503015256 7 351 0.0 0.0 0.00 0.00 0.00 70 1018.0
20260503015156 7 351 0.0 0.0 0.00 0.00 0.00 70 1018.0
20260503015056 7 351 0.0 0.0 0.00 0.00 0.00 69 1018.0
20260503014956 7 351 0.0 0.0 0.00 0.00 0.00 69 1017.9
20260503014856 7 351 0.0 0.0 0.00 0.00 0.00 69 1018.0
20260503014756 7 351 0.0 0.0 0.00 0.00 0.00 68 1018.0
20260503014656 7 351 0.0 0.0 0.00 0.00 0.00 68 1017.9
20260503014556 7 351 0.0 0.0 0.00 0.00 0.00 68 1017.9
20260503014456 7 351 0.0 0.0 0.00 0.00 0.00 68 1017.9
20260503014356 7 351 0.0 0.0 0.00 0.00 0.00 67 1017.9
20260503014256 7 351 0.0 0.0 0.00 0.00 0.00 67 1017.8
20260503014156 7 351 0.0 0.0 0.00 0.00 0.00 67 1017.9
20260503014055 8 351 0.0 0.0 0.00 0.00 0.00 67 1017.9
20260503013956 8 351 0.0 0.0 0.00 0.00 0.00 67 1017.9
20260503013856 8 351 0.0 0.0 0.00 0.00 0.00 66 1017.9
20260503013756 8 351 0.0 0.0 0.00 0.00 0.00 66 1017.8
20260503013656 8 351 0.0 0.0 0.00 0.00 0.00 66 1017.9
20260503013556 8 351 0.0 0.0 0.00 0.00 0.00 66 1017.9
20260503013456 8 351 0.0 0.0 0.00 0.00 0.00 66 1017.8
20260503013355 8 351 0.0 0.0 0.00 0.00 0.00 65 1017.8
20260503013257 8 351 0.0 0.0 0.00 0.00 0.00 63 1017.9
20260503013156 8 351 0.0 0.0 0.00 0.00 0.00 63 1017.8